Lid_Strength_Index
8 10 12 10 9 10 9 9 9 8 6 7 7 8 7 6 6 5 5 4 4 3 2 2 1 1 0 0 -0 -0 -0 -1 0 1 1 1 1 1 0 -0 -1 -1 -1 -1
9 11 9 9 9 10 10 10 10 8 7 7 7 8 6 5 6 5 5 4 4 3 3 2 2 1 1 0 -0 0 -0 -0 0 0 0 0 0 0 0 -0 -0 -1 -1 -1
9 8 6 7 8 10 10 10 10 9 7 7 7 9 8 5 5 5 5 4 4 4 4 3 3 2 1 1 0 0 -0 -0 -0 -1 0 0 0 0 1 1 1 -0 -0 -1
7 6 7 7 8 8 11 9 8 8 9 12 7 13 8 7 6 5 6 5 5 4 4 4 3 3 1 1 0 -0 -0 -0 -0 -0 0 1 2 2 1 1 0 0 -0 -0
9 8 8 9 8 7 9 7 8 8 10 10 9 11 9 7 7 6 6 6 5 4 5 4 4 3 2 1 0 -0 -0 0 0 0 -0 1 1 1 1 1 1 0 -0 -0
7 5 6 7 6 6 6 8 8 8 9 14 11 11 11 9 7 6 5 4 4 4 4 4 4 3 2 1 1 0 0 1 0 1 0 1 1 1 1 1 2 1 1 0
10 8 6 6 8 7 7 10 15 16 15 15 9 11 10 7 7 6 5 5 4 4 5 4 4 2 1 1 1 1 1 2 1 1 1 1 1 1 1 1 1 1 1 1
13 16 8 6 8 9 9 10 14 18 15 13 9 12 10 6 5 5 5 5 4 4 3 3 2 2 2 1 1 1 1 2 1 1 1 1 1 1 1 0 1 1 1 0
14 13 7 7 6 7 9 12 8 12 11 12 11 9 8 7 6 5 6 6 4 4 3 3 3 2 2 1 1 1 2 2 1 1 1 1 1 0 1 0 -0 0 -0 0
10 15 9 8 7 6 8 7 11 11 16 16 12 11 11 8 8 6 6 6 5 3 3 3 3 3 2 1 2 1 1 2 1 1 1 1 1 0 0 0 0 0 -0 -0
7 11 12 8 11 13 9 10 9 10 11 14 14 12 7 7 6 6 6 5 5 4 3 4 4 3 3 2 2 2 2 2 2 1 1 1 1 0 0 0 0 0 -0 -0
7 10 13 11 7 7 8 10 9 13 13 11 11 12 6 6 5 5 5 5 4 4 3 3 4 4 3 2 2 2 2 2 1 1 1 1 1 1 1 1 0 -0 0 -0
8 11 14 12 9 8 9 9 8 8 10 12 13 11 6 6 6 6 5 5 4 4 3 3 4 4 4 3 2 2 2 2 1 1 1 1 1 1 1 0 0 -0 0 0
7 10 12 15 12 10 11 10 9 10 12 11 11 10 8 6 7 6 5 4 5 4 4 4 3 4 4 3 2 2 2 1 1 1 1 1 1 1 1 0 0 0 0 0
8 13 10 9 9 9 10 10 9 10 9 12 10 10 8 7 7 6 5 5 5 5 5 5 3 4 4 3 3 2 2 1 1 1 1 1 1 0 0 0 0 0 -0 0
8 13 10 11 9 9 10 9 9 9 9 9 9 10 7 6 6 6 6 6 6 5 5 5 4 4 4 3 3 2 2 2 1 1 1 1 1 1 1 1 0 0 0 0
11 11 13 14 10 10 12 10 9 9 8 8 10 8 6 7 7 6 6 6 6 6 5 5 4 3 4 3 2 2 2 1 1 1 1 1 1 1 1 1 1 1 1 0
12 11 12 14 12 18 10 8 8 10 9 8 8 7 6 6 5 5 5 6 5 5 5 4 4 3 3 2 2 2 1 1 1 1 1 1 1 1 1 1 1 1 0 0
9 11 14 15 16 12 11 10 11 11 12 8 8 7 6 5 5 6 5 4 5 3 3 3 2 2 3 3 2 2 2 2 1 2 1 1 1 1 1 1 1 1 1 1
10 10 13 14 18 19 14 9 8 8 15 9 8 9 8 7 10 7 4 3 3 3 2 3 2 2 3 3 2 2 2 2 2 1 1 1 1 1 1 1 1 1 0 1
14 13 15 15 17 13 9 8 8 16 13 8 7 7 7 9 7 5 3 3 3 3 3 2 2 3 3 2 2 2 2 2 1 1 1 1 1 1 1 1 0 1 1 1
15 15 14 15 17 18 7 9 13 8 7 7 7 7 8 6 5 5 4 4 3 3 3 2 3 3 3 2 2 2 2 1 1 1 1 1 1 1 1 1 1 1 1 1
12 11 14 14 12 7 6 8 6 7 7 7 7 6 7 7 6 5 5 4 3 3 3 3 3 3 3 2 2 2 1 1 1 1 1 1 1 1 1 1 1 2 1 2
8 7 10 11 8 7 6 6 6 7 7 6 6 5 6 6 5 5 4 4 4 3 3 3 3 3 3 2 2 1 1 1 1 1 1 1 1 1 1 1 1 2 2 2
8 8 9 10 7 7 7 7 7 6 6 6 5 5 5 4 4 4 4 4 4 3 3 3 3 3 3 2 2 1 1 1 1 1 1 1 1 1 1 1 1 1 1 2
7 9 12 12 7 8 8 6 5 6 7 6 6 5 5 5 5 4 4 4 4 3 3 3 3 3 2 2 2 1 1 1 1 2 2 2 1 1 1 2 2 12 10 10